Fort Benning, AL

10:08 PM CDT on May 25, 2017 (GMT -0500)
Lawson Army Air Field

Weather History for KLSF - September, 2012

Change the Weather History Date:

Monday, September 3, 2012

  Actual Average Record
Temperature  
Mean Temperature 79 °F -  
Max Temperature 88 °F 86 °F 96 °F (1997)
Min Temperature 71 °F 65 °F 60 °F (2010)
Cooling Degree Days 14    
Growing Degree Days 29 (Base 50)    
Moisture  
Dew Point 73 °F    
Average Humidity 91    
Maximum Humidity 100    
Minimum Humidity 66    
Precipitation  
Precipitation 0.90 in - - ()
Sea Level Pressure  
Sea Level Pressure 29.98 in    
Wind  
Wind Speed 5 mph (South)    
Max Wind Speed 20 mph    
Max Gust Speed 28 mph    
Visibility 6 miles    
Events Fog , Rain , Thunderstorm    
Averages and records for this station are not official NWS values.
T = Trace of Precipitation, MM = Missing Value Source: NWS Daily Summary

Daily Weather History Graph

Daily Weather History Graph

Search for Another Location

Airport or City:

Trip Planner

Search our weather history database for the weather conditions in past years. The results will help you decide how hot, cold, wet, or windy it might be!

Date:

Astronomy

Sep. 03, 2012 Rise Set
Actual Time 7:16 AM EDT 8:01 PM EDT
Civil Twilight 6:51 AM EDT 8:25 PM EDT
Nautical Twilight 6:22 AM EDT 8:55 PM EDT
Astronomical Twilight 5:52 AM EDT 9:25 PM EDT
Moon 9:36 PM EDT (9/3) 10:09 AM EDT (9/3)
Length of Visible Light 13h 34m
Length of Day
12h 44m
Waning Gibbous, 90% of the Moon is Illuminated
Sep 3
Waning Gibbous
Sep 8
Last Quarter
Sep 15
New
Sep 22
First Quarter
Sep 29
Full

Hourly Weather History & Observations

Time (EDT) Temp. Heat Index Dew Point Humidity Pressure Visibility Wind Dir Wind Speed Gust Speed Precip Events Conditions
12:55 AM 73.0 °F - 71.4 °F 95% 29.98 in 10.0 mi SE 6.9 mph - N/A   Clear
1:55 AM 73.0 °F - 71.2 °F 94% 29.98 in 10.0 mi Calm Calm - N/A   Clear
2:54 AM 71.6 °F - 71.6 °F 100% 29.97 in 7.0 mi SE 5.8 mph - N/A   Clear
2:55 AM 72.1 °F - 71.6 °F 98% 29.97 in 7.0 mi SE 4.6 mph - N/A   Clear
3:55 AM 71.6 °F - 71.1 °F 98% 29.97 in 7.0 mi SSE 4.6 mph - N/A   Clear
4:54 AM 71.6 °F - 71.6 °F 100% 29.98 in 5.0 mi Calm Calm - N/A   Clear
4:55 AM 72.3 °F - 71.8 °F 98% 29.98 in 6.0 mi Calm Calm - N/A   Clear
5:20 AM 71.6 °F - 71.6 °F 100% 29.98 in 2.5 mi SE 3.5 mph - N/A   Clear
5:22 AM 71.6 °F - 71.6 °F 100% 29.98 in 1.8 mi SE 3.5 mph - N/A   Clear
5:23 AM 71.6 °F - 71.6 °F 100% 29.98 in 1.5 mi SE 3.5 mph - N/A   Clear
5:24 AM 71.6 °F - 71.6 °F 100% 29.98 in 1.5 mi SE 3.5 mph - N/A   Partly Cloudy
5:25 AM 71.6 °F - 71.6 °F 100% 29.98 in 1.2 mi SSE 3.5 mph - N/A   Partly Cloudy
5:27 AM 71.6 °F - 71.6 °F 100% 29.98 in 1.5 mi SSE 3.5 mph - N/A   Partly Cloudy
5:28 AM 71.6 °F - 71.6 °F 100% 29.98 in 1.2 mi SSE 3.5 mph - N/A   Scattered Clouds
5:30 AM 71.6 °F - 71.6 °F 100% 29.98 in 1.5 mi SE 3.5 mph - N/A   Scattered Clouds
5:31 AM 71.6 °F - 71.6 °F 100% 29.98 in 1.5 mi SE 3.5 mph - N/A   Scattered Clouds
5:32 AM 71.6 °F - 71.6 °F 100% 29.98 in 1.8 mi SE 3.5 mph - N/A   Scattered Clouds
5:33 AM 71.6 °F - 71.6 °F 100% 29.98 in 2.0 mi SE 3.5 mph - N/A   Mostly Cloudy
5:36 AM 71.6 °F - 71.6 °F 100% 29.98 in 2.5 mi Calm Calm - N/A   Mostly Cloudy
5:37 AM 71.6 °F - 71.6 °F 100% 29.98 in 3.0 mi Calm Calm - N/A   Mostly Cloudy
5:55 AM 72.7 °F - 72.3 °F 99% 29.98 in 10.0 mi SSE 3.5 mph - N/A   Overcast
6:16 AM 73.4 °F - 71.6 °F 94% 29.98 in 9.0 mi Calm Calm - N/A   Overcast
6:18 AM 73.4 °F - 71.6 °F 94% 29.98 in 9.0 mi Calm Calm - N/A   Overcast
6:29 AM 73.4 °F - 73.4 °F 100% 29.98 in 2.5 mi South 3.5 mph - N/A   Overcast
6:31 AM 73.4 °F - 73.4 °F 100% 29.98 in 2.0 mi SSE 4.6 mph - N/A   Overcast
6:32 AM 73.4 °F - 73.4 °F 100% 29.98 in 2.0 mi SSE 4.6 mph - N/A   Overcast
6:45 AM 73.4 °F - 73.4 °F 100% 29.98 in 2.5 mi SE 6.9 mph - N/A   Light Drizzle
6:49 AM 73.4 °F - 73.4 °F 100% 29.98 in 2.5 mi SSE 5.8 mph - N/A   Light Drizzle
6:50 AM 73.4 °F - 73.4 °F 100% 29.98 in 3.0 mi SSE 5.8 mph - N/A   Light Drizzle
6:55 AM 73.4 °F - 72.9 °F 98% 29.98 in 4.0 mi SSE 4.6 mph - 0.00 in   Light Drizzle
6:58 AM 73.4 °F - 73.4 °F 100% 29.98 in 6.0 mi SE 5.8 mph - N/A   Scattered Clouds
7:05 AM 73.4 °F - 73.4 °F 100% 29.98 in 7.0 mi SE 3.5 mph - N/A   Scattered Clouds
7:49 AM 75.2 °F - 73.4 °F 94% 30.00 in 6.0 mi SE 4.6 mph - N/A Rain Light Rain
7:55 AM 74.5 °F - 73.8 °F 98% 30.00 in 5.0 mi SSE 4.6 mph - 0.00 in   Light Drizzle
8:00 AM 75.2 °F - 73.4 °F 94% 29.99 in 6.0 mi SSE 4.6 mph - N/A   Mostly Cloudy
8:55 AM 78.1 °F - 74.7 °F 89% 30.00 in 10.0 mi SSW 8.1 mph - 0.00 in   Clear
9:53 AM 78.8 °F - 75.2 °F 89% 30.00 in 10.0 mi SSW 4.6 mph - N/A   Mostly Cloudy
9:55 AM 79.7 °F - 74.7 °F 84% 30.01 in 10.0 mi SSW 4.6 mph - N/A   Mostly Cloudy
10:39 AM 82.4 °F 89.5 °F 75.2 °F 79% 30.01 in 10.0 mi SW 6.9 mph - N/A   Scattered Clouds
10:46 AM 82.4 °F 89.5 °F 75.2 °F 79% 30.01 in 10.0 mi SW 8.1 mph - N/A   Mostly Cloudy
10:55 AM 81.9 °F 88.5 °F 75.2 °F 80% 30.01 in 10.0 mi SW 6.9 mph - N/A   Mostly Cloudy
11:00 AM 82.4 °F 89.5 °F 75.2 °F 79% 30.01 in 10.0 mi SSW 6.9 mph - N/A   Mostly Cloudy
11:18 AM 82.4 °F 89.5 °F 75.2 °F 79% 30.01 in 10.0 mi SW 5.8 mph - N/A   Overcast
11:54 AM 82.4 °F 89.5 °F 75.2 °F 79% 30.01 in 10.0 mi WSW 4.6 mph - N/A   Mostly Cloudy
11:55 AM 82.4 °F 89.8 °F 75.7 °F 80% 30.01 in 10.0 mi West 5.8 mph - N/A   Mostly Cloudy
11:56 AM 82.4 °F 89.5 °F 75.2 °F 79% 30.01 in 10.0 mi West 6.9 mph - N/A   Mostly Cloudy
12:25 PM 82.4 °F 90.9 °F 77.0 °F 84% 30.01 in 10.0 mi WNW 5.8 mph - N/A   Overcast
12:55 PM 83.7 °F 92.7 °F 76.5 °F 79% 30.00 in 10.0 mi SW 6.9 mph - N/A   Mostly Cloudy
12:58 PM 84.2 °F 94.1 °F 77.0 °F 79% 30.00 in 10.0 mi West 8.1 mph - N/A   Mostly Cloudy
12:59 PM 84.2 °F 94.1 °F 77.0 °F 79% 30.00 in 10.0 mi WSW 6.9 mph - N/A   Mostly Cloudy
1:08 PM 84.2 °F 94.1 °F 77.0 °F 79% 30.00 in 10.0 mi West 6.9 mph - N/A   Mostly Cloudy
1:55 PM 85.1 °F 94.9 °F 76.3 °F 75% 29.98 in 10.0 mi SW 11.5 mph - N/A   Scattered Clouds
2:40 PM 86.0 °F 95.1 °F 75.2 °F 70% 29.97 in 10.0 mi WSW 9.2 mph - N/A   Mostly Cloudy
2:45 PM 86.0 °F 95.1 °F 75.2 °F 70% 29.96 in 10.0 mi SW 6.9 mph - N/A   Mostly Cloudy
2:51 PM 86.0 °F 95.1 °F 75.2 °F 70% 29.96 in 10.0 mi SW 10.4 mph - N/A   Mostly Cloudy
2:55 PM 86.9 °F 96.4 °F 75.4 °F 68% 29.96 in 10.0 mi SW 6.9 mph - N/A   Mostly Cloudy
3:22 PM 87.8 °F 97.6 °F 75.2 °F 66% 29.94 in 10.0 mi SW 5.8 mph - N/A   Mostly Cloudy
3:55 PM 86.5 °F 95.5 °F 74.7 °F 68% 29.93 in 10.0 mi West 5.8 mph - N/A   Scattered Clouds
4:10 PM 86.0 °F 95.1 °F 75.2 °F 70% 29.92 in 10.0 mi West 4.6 mph - N/A   Light Drizzle
4:15 PM 86.0 °F 95.1 °F 75.2 °F 70% 29.93 in 10.0 mi West 4.6 mph - N/A   Partly Cloudy
4:21 PM 86.0 °F 95.1 °F 75.2 °F 70% 29.93 in 10.0 mi West 6.9 mph - N/A Thunderstorm Scattered Clouds
4:29 PM 86.0 °F 95.1 °F 75.2 °F 70% 29.93 in 10.0 mi West 5.8 mph - N/A Thunderstorm Thunderstorm
4:41 PM 80.6 °F 85.4 °F 73.4 °F 79% 29.95 in 10.0 mi North 16.1 mph 27.6 mph N/A Rain , Thunderstorm Heavy Thunderstorms and Rain
4:46 PM 77.0 °F - 73.4 °F 89% 29.98 in 10.0 mi WNW 11.5 mph - N/A Rain , Thunderstorm Heavy Thunderstorms and Rain
4:52 PM 75.2 °F - 71.6 °F 89% 29.99 in 4.0 mi West 16.1 mph 20.7 mph N/A Rain , Thunderstorm Light Thunderstorms and Rain
4:53 PM 75.2 °F - 71.6 °F 89% 29.99 in 2.0 mi West 18.4 mph - N/A Rain , Thunderstorm Heavy Thunderstorms and Rain
4:54 PM 75.2 °F - 71.6 °F 89% 29.99 in 1.5 mi West 19.6 mph - N/A Rain , Thunderstorm Heavy Thunderstorms and Rain
4:55 PM 75.2 °F - 71.6 °F 89% 29.99 in 1.2 mi West 17.3 mph - 0.39 in Rain , Thunderstorm Heavy Thunderstorms and Rain
4:56 PM 75.2 °F - 71.6 °F 89% 29.99 in 1.0 mi WNW 12.7 mph 20.7 mph N/A Rain , Thunderstorm Heavy Thunderstorms and Rain
4:57 PM 75.2 °F - 71.6 °F 89% 29.99 in 0.8 mi WNW 11.5 mph 20.7 mph N/A Rain , Thunderstorm Heavy Thunderstorms and Rain
4:59 PM 73.4 °F - 71.6 °F 94% 29.98 in 0.5 mi NW 6.9 mph 20.7 mph N/A Fog , Rain , Thunderstorm Heavy Thunderstorms and Rain
5:01 PM 73.4 °F - 71.6 °F 94% 29.98 in 0.5 mi NNW 5.8 mph 20.7 mph N/A Fog , Rain , Thunderstorm Heavy Thunderstorms and Rain
5:03 PM 73.4 °F - 69.8 °F 88% 29.98 in 0.5 mi NNW 4.6 mph - N/A Fog , Rain , Thunderstorm Heavy Thunderstorms and Rain
5:06 PM 73.4 °F - 69.8 °F 88% 29.98 in 0.8 mi WNW 6.9 mph - N/A Rain , Thunderstorm Heavy Thunderstorms and Rain
5:08 PM 71.6 °F - 69.8 °F 94% 29.98 in 1.0 mi WNW 8.1 mph - N/A Rain , Thunderstorm Thunderstorms and Rain
5:09 PM 71.6 °F - 69.8 °F 94% 29.98 in 1.2 mi WNW 6.9 mph - N/A Rain , Thunderstorm Thunderstorms and Rain
5:10 PM 71.6 °F - 69.8 °F 94% 29.98 in 1.8 mi WNW 5.8 mph - N/A Rain , Thunderstorm Thunderstorms and Rain
5:11 PM 71.6 °F - 69.8 °F 94% 29.98 in 2.5 mi WNW 4.6 mph - N/A Rain , Thunderstorm Thunderstorms and Rain
5:12 PM 71.6 °F - 69.8 °F 94% 29.98 in 3.0 mi West 4.6 mph - N/A Rain , Thunderstorm Thunderstorms and Rain
5:32 PM 71.6 °F - 71.6 °F 100% 29.95 in 10.0 mi Calm Calm - N/A Rain Light Rain
5:35 PM 71.6 °F - 71.6 °F 100% 29.95 in 9.0 mi ESE 2.3 mph - N/A Rain , Thunderstorm Light Thunderstorms and Rain
5:36 PM 71.6 °F - 71.6 °F 100% 29.95 in 8.0 mi ESE 3.5 mph - N/A Rain , Thunderstorm Light Thunderstorms and Rain
5:51 PM 73.4 °F - 71.6 °F 94% 29.95 in 6.0 mi ESE 3.5 mph - N/A Rain Rain
5:55 PM 72.9 °F - 71.6 °F 96% 29.94 in 6.0 mi SE 4.6 mph - 0.33 in Rain Rain
6:55 PM 72.9 °F - 72.3 °F 98% 29.96 in 10.0 mi SE 6.9 mph - 0.09 in Rain Light Rain
7:21 PM 73.4 °F - 71.6 °F 94% 29.96 in 10.0 mi SE 8.1 mph - N/A   Mostly Cloudy
7:28 PM 73.4 °F - 71.6 °F 94% 29.96 in 10.0 mi SE 9.2 mph - N/A   Mostly Cloudy
7:55 PM 73.0 °F - 72.1 °F 97% 29.95 in 10.0 mi SSE 4.6 mph - 0.01 in   Mostly Cloudy
8:31 PM 73.4 °F - 71.6 °F 94% 29.96 in 5.0 mi South 3.5 mph - N/A   Mostly Cloudy
8:33 PM 73.4 °F - 71.6 °F 94% 29.96 in 3.0 mi SSE 3.5 mph - N/A Rain Light Rain
8:37 PM 73.4 °F - 71.6 °F 94% 29.96 in 2.5 mi ESE 5.8 mph - N/A Rain Light Rain
8:40 PM 73.4 °F - 71.6 °F 94% 29.96 in 3.0 mi ESE 3.5 mph - N/A Rain Light Rain
8:53 PM 73.4 °F - 71.6 °F 94% 29.96 in 9.0 mi East 3.5 mph - N/A Rain Rain
8:55 PM 73.0 °F - 72.1 °F 97% 29.96 in 10.0 mi ESE 5.8 mph - 0.07 in Rain Rain
9:03 PM 73.4 °F - 71.6 °F 94% 29.95 in 10.0 mi ESE 5.8 mph - N/A   Mostly Cloudy
9:23 PM 73.4 °F - 71.6 °F 94% 29.94 in 10.0 mi South 3.5 mph - N/A Rain Light Rain
9:51 PM 73.4 °F - 71.6 °F 94% 29.95 in 10.0 mi SE 3.5 mph - N/A Thunderstorm Mostly Cloudy
9:55 PM 72.7 °F - 72.1 °F 98% 29.96 in 10.0 mi South 3.5 mph - 0.01 in   Mostly Cloudy
10:55 PM 72.5 °F - 71.8 °F 98% 29.96 in 10.0 mi SSE 5.8 mph - N/A   Mostly Cloudy
11:40 PM 73.4 °F - 71.6 °F 94% 29.96 in 10.0 mi South 3.5 mph - N/A   Mostly Cloudy
11:49 PM 73.4 °F - 71.6 °F 94% 29.96 in 10.0 mi SSE 4.6 mph - N/A   Overcast
11:55 PM 72.5 °F - 72.0 °F 98% 29.96 in 10.0 mi SSE 4.6 mph - N/A   Overcast